(376495) = 2012 KJ27

Discovered at Mount Lemmon on 2009-09-29 by Mt. Lemmon Survey.

Orbit

Orbit type: Main Belt

Note: WebGL enabled browser required.

epoch2023-09-13.0
epoch JD2460200.5
perihelion date2023-02-25.23406
perihelion JD2460000.73406
argument of perihelion (°)309.98160
ascending node (°)86.58186
inclination (°)6.91870
eccentricity0.0256117
perihelion distance (AU)2.6217269
Tisserand w.r.t. Jupiter3.4
ΔV w.r.t. Earth (km/sec)10.3
semimajor axis (AU)2.6906387
mean anomaly (°)44.61103
mean daily motion (°/day)0.22331650
aphelion distance (AU)2.760
period (years)4.41
P-vector [x]0.79762775
P-vector [y]0.58357705
P-vector [z]0.15240671
Q-vector [x]-0.59104209
Q-vector [y]0.70587506
Q-vector [z]0.39039678
absolute magnitude17.19
phase slope0.15
uncertainty0
referenceMPEC 2024-B63
observations used180
oppositions11
arc length (days)7558
first opposition used2003
last opposition used2024
residual rms (arc-secs)0.74
perturbers coarse indicatorM-v
perturbers precise indicator003Ek
first observation date used2003-05-11.0
last observation date used2024-01-19.0
computer nameMPCLINUX
Minimum Orbit Intersection Distances (in AU)
for orbit epoch: 2460200.5, reference: E2024-B63
Mercury2.25544
Venus1.89938
Earth1.63497
Mars1.04885
Jupiter2.34783
Saturn6.40314
Uranus15.7295
Neptune27.2231

Observations

184 total observations over interval: 2003 05 11.23468 – 2024 01 19.204390
These data are available for download (format description).

Date (UT) J2000 RA J2000 Dec Magn Location Ref
2003 05 11.23468 14 34 14.67 -07 10 10.3 21.0 V 691 – Steward Observatory, Kitt Peak-Spacewatch MPS 431366
2003 05 11.26102 14 34 13.27 -07 10 08.0 21.6 V 691 – Steward Observatory, Kitt Peak-Spacewatch MPS 431366
2003 05 11.28709 14 34 11.89 -07 10 05.1 21.9 V 691 – Steward Observatory, Kitt Peak-Spacewatch MPS 431366
2009 09 29.36700 02 15 36.82 +03 22 41.1 20.8 V G96 – Mt. Lemmon Survey MPS 431366
2009 09 29.37399 02 15 36.57 +03 22 39.3 21.0 V G96 – Mt. Lemmon Survey MPS 431366
2009 09 29.38087 02 15 36.32 +03 22 37.5 21.0 V G96 – Mt. Lemmon Survey MPS 431366
2009 09 29.38774 02 15 36.07 +03 22 35.8 21.3 V G96 – Mt. Lemmon Survey MPS 431366
2009 10 22.32359 01 57 26.31 +01 52 10.3 20.7 V G96 – Mt. Lemmon Survey MPS 431366
2009 10 22.33264 01 57 25.81 +01 52 08.1 20.6 V G96 – Mt. Lemmon Survey MPS 431366
2009 10 22.34200 01 57 25.27 +01 52 06.4 20.6 V G96 – Mt. Lemmon Survey MPS 431366
2009 10 22.35130 01 57 24.80 +01 52 04.8 20.3 V G96 – Mt. Lemmon Survey MPS 431366
2011 01 26.38662 09 36 33.94 +22 39 37.6 20.9 V G96 – Mt. Lemmon Survey MPS 431366
2011 01 26.39550 09 36 33.51 +22 39 41.3 20.7 V G96 – Mt. Lemmon Survey MPS 431366
2011 01 26.40440 09 36 33.04 +22 39 44.6 20.9 V G96 – Mt. Lemmon Survey MPS 431366
2011 01 26.41322 09 36 32.47 +22 39 48.2 21.2 V G96 – Mt. Lemmon Survey MPS 431366
2011 01 30.18640 09 33 17.86 +23 04 44.6 20.5 V 691 – Steward Observatory, Kitt Peak-Spacewatch MPS 431366
2011 01 30.20421 09 33 16.90 +23 04 51.5 20.8 V 691 – Steward Observatory, Kitt Peak-Spacewatch MPS 431366
2011 01 30.22203 09 33 15.89 +23 04 58.8 20.7 V 691 – Steward Observatory, Kitt Peak-Spacewatch MPS 431366
2011 01 30.53537 09 32 58.915 +23 07 02.35 21.1 w F51 – Pan-STARRS 1, Haleakala MPS 431366
2011 01 30.55059 09 32 58.076 +23 07 08.33 21.0 w F51 – Pan-STARRS 1, Haleakala MPS 431366
2011 01 30.56793 09 32 57.114 +23 07 14.98 21.2 w F51 – Pan-STARRS 1, Haleakala MPS 431366
2011 01 30.58305 09 32 56.286 +23 07 20.80 21.2 w F51 – Pan-STARRS 1, Haleakala MPS 431366
2012 05 16.29175 15 48 20.44 -14 26 57.8 20.4 V G96 – Mt. Lemmon Survey MPS 426127
2012 05 16.29762 15 48 20.12 -14 26 57.1 20.5 V G96 – Mt. Lemmon Survey MPS 426127
2012 05 16.30351 15 48 19.76 -14 26 56.9 20.4 V G96 – Mt. Lemmon Survey MPS 426127
2012 05 16.30924 15 48 19.44 -14 26 56.4 20.4 V G96 – Mt. Lemmon Survey MPS 426127
2012 05 21.45905 15 43 31.127 -14 22 16.16 21.1 g F51 – Pan-STARRS 1, Haleakala MPS 426127
2012 05 21.47023 15 43 30.472 -14 22 15.46 20.6 r F51 – Pan-STARRS 1, Haleakala MPS 426127
2012 05 21.47986 15 43 29.902 -14 22 15.00 20.7 r F51 – Pan-STARRS 1, Haleakala MPS 426127
2012 06 11.21569 15 26 07.33 -14 18 03.9 21.3 V G96 – Mt. Lemmon Survey MPS 429095
2012 06 11.22142 15 26 07.08 -14 18 04.2 20.8 V G96 – Mt. Lemmon Survey MPS 429095
2012 06 11.22723 15 26 06.79 -14 18 04.2 21.2 V G96 – Mt. Lemmon Survey MPS 429095
2012 06 11.23304 15 26 06.57 -14 18 04.6 21.4 V G96 – Mt. Lemmon Survey MPS 429095
2013 08 26.47156 23 15 46.148 -16 14 57.89 20.7 r F51 – Pan-STARRS 1, Haleakala MPS 474409
2013 08 26.49776 23 15 44.876 -16 15 08.28 20.4 i F51 – Pan-STARRS 1, Haleakala MPS 474409
2013 08 26.51010 23 15 44.289 -16 15 13.06 20.2 i F51 – Pan-STARRS 1, Haleakala MPS 474409
2013 10 06.31804 22 45 24.759 -18 52 16.50 21.1 w F51 – Pan-STARRS 1, Haleakala MPS 480234
2013 10 06.33229 22 45 24.323 -18 52 16.57 21.3 w F51 – Pan-STARRS 1, Haleakala MPS 480234
2013 10 06.34654 22 45 23.914 -18 52 16.73 21.3 w F51 – Pan-STARRS 1, Haleakala MPS 480234
2013 10 06.36079 22 45 23.470 -18 52 16.72 21.4 w F51 – Pan-STARRS 1, Haleakala MPS 480234
2016 03 30.40694 13 21 40.345 +02 27 22.45 20.7 r F51 – Pan-STARRS 1, Haleakala MPS 698540
2016 03 30.41832 13 21 39.774 +02 27 26.00 20.9 r F51 – Pan-STARRS 1, Haleakala MPS 698540
2016 03 30.44107 13 21 38.608 +02 27 32.44 20.9 r F51 – Pan-STARRS 1, Haleakala MPS 698540
2016 04 03.39890 13 18 21.16 +02 46 46.3 20.9 V G96 – Mt. Lemmon Survey MPS 701017
2016 04 03.40518 13 18 20.81 +02 46 48.0 21.0 V G96 – Mt. Lemmon Survey MPS 701017
2016 04 03.41146 13 18 20.48 +02 46 49.6 20.9 V G96 – Mt. Lemmon Survey MPS 701017
2016 04 03.41777 13 18 20.17 +02 46 51.6 20.7 V G96 – Mt. Lemmon Survey MPS 701017
2016 04 05.41764 13 16 38.451 +02 56 10.36 20.8 w F51 – Pan-STARRS 1, Haleakala MPS 701017
2016 04 05.43253 13 16 37.661 +02 56 14.50 20.9 w F51 – Pan-STARRS 1, Haleakala MPS 701017
2016 04 05.44396 13 16 37.060 +02 56 17.62 20.9 w F51 – Pan-STARRS 1, Haleakala MPS 701017
2016 04 05.45542 13 16 36.452 +02 56 20.67 20.8 w F51 – Pan-STARRS 1, Haleakala MPS 701017
2017 07 02.37819 20 14 04.51 -24 47 14.0 21.4 V G96 – Mt. Lemmon Survey MPS 804749
2017 07 02.38250 20 14 04.28 -24 47 15.7 21.1 V G96 – Mt. Lemmon Survey MPS 804749
2017 07 02.38682 20 14 04.11 -24 47 16.9 21.7 V G96 – Mt. Lemmon Survey MPS 804749
2017 07 02.39110 20 14 03.91 -24 47 18.0 21.4 V G96 – Mt. Lemmon Survey MPS 804749
2017 07 26.37338 19 52 47.195 -26 47 21.40 20.6 w F51 – Pan-STARRS 1, Haleakala MPS 807808
2017 07 26.38374 19 52 46.587 -26 47 23.85 20.7 w F51 – Pan-STARRS 1, Haleakala MPS 807808
2017 07 26.39410 19 52 45.986 -26 47 26.55 20.7 w F51 – Pan-STARRS 1, Haleakala MPS 807808
2017 07 26.40446 19 52 45.394 -26 47 29.24 20.6 w F51 – Pan-STARRS 1, Haleakala MPS 807808
2017 08 13.31684 19 38 07.461 -27 44 45.04 21.1 w F51 – Pan-STARRS 1, Haleakala MPS 811933
2017 08 13.33632 19 38 06.642 -27 44 47.75 21.2 w F51 – Pan-STARRS 1, Haleakala MPS 811933
2017 08 13.34607 19 38 06.240 -27 44 48.98 21.3 w F51 – Pan-STARRS 1, Haleakala MPS 811933
2018 10 10.57641 03 29 31.404 +11 07 47.94 21.1 w F52 – Pan-STARRS 2, Haleakala MPS 927134
2018 10 10.58822 03 29 31.031 +11 07 46.40 21.1 w F52 – Pan-STARRS 2, Haleakala MPS 927134
2018 10 10.60001 03 29 30.686 +11 07 45.12 21.0 w F52 – Pan-STARRS 2, Haleakala MPS 927134
2018 10 10.61179 03 29 30.335 +11 07 43.81 21.1 w F52 – Pan-STARRS 2, Haleakala MPS 927134
2018 10 18.43413 03 25 01.46 +10 51 17.9   G96 – Mt. Lemmon Survey MPS 930920
2018 10 18.43923 03 25 01.13 +10 51 16.8 21.3 G G96 – Mt. Lemmon Survey MPS 930920
2018 10 18.44434 03 25 00.96 +10 51 16.0 20.8 G G96 – Mt. Lemmon Survey MPS 930920
2018 10 18.44944 03 25 00.69 +10 51 15.7 21.2 G G96 – Mt. Lemmon Survey MPS 930920
2018 11 02.35210 03 13 01.470 +10 18 02.63 20.7 w F52 – Pan-STARRS 2, Haleakala MPS 936684
2018 11 02.36481 03 13 00.767 +10 18 01.19 20.7 w F52 – Pan-STARRS 2, Haleakala MPS 936684
2018 11 02.37756 03 13 00.026 +10 17 59.60 20.7 w F52 – Pan-STARRS 2, Haleakala MPS 936684
2018 11 02.37996 03 12 59.67 +10 17 58.1 20.6 G G96 – Mt. Lemmon Survey MPS 936684
2018 11 02.38508 03 12 59.36 +10 17 57.7 20.8 G G96 – Mt. Lemmon Survey MPS 936684
2018 11 02.39020 03 12 59.07 +10 17 57.0 20.5 G G96 – Mt. Lemmon Survey MPS 936684
2018 11 02.39029 03 12 59.310 +10 17 57.79 20.7 w F52 – Pan-STARRS 2, Haleakala MPS 936684
2018 11 02.39533 03 12 58.76 +10 17 56.1 20.4 G G96 – Mt. Lemmon Survey MPS 936684
2018 11 08.70103 03 07 05.09 +10 05 21.0 20.2 R D29 – Purple Mountain Observatory, XuYi Station MPS 942369
2018 11 08.71517 03 07 04.34 +10 05 19.8 20.9 R D29 – Purple Mountain Observatory, XuYi Station MPS 942369
2018 11 08.72931 03 07 03.43 +10 05 16.7 20.4 R D29 – Purple Mountain Observatory, XuYi Station MPS 942369
2018 11 10.32169 03 05 32.74 +10 02 26.5 20.6 G G96 – Mt. Lemmon Survey MPS 940231
2018 11 10.32685 03 05 32.46 +10 02 24.9 20.6 G G96 – Mt. Lemmon Survey MPS 940231
2018 11 10.33201 03 05 32.17 +10 02 24.9 20.4 G G96 – Mt. Lemmon Survey MPS 940231
2018 11 10.33720 03 05 31.85 +10 02 24.8 20.4 G G96 – Mt. Lemmon Survey MPS 940231
2018 11 10.47929 03 05 23.697 +10 02 11.17 20.5 w F52 – Pan-STARRS 2, Haleakala MPS 940231
2018 11 10.48002 03 05 23.650 +10 02 10.89 20.4 w F52 – Pan-STARRS 2, Haleakala MPS 940231
2018 11 10.49216 03 05 22.931 +10 02 09.87 20.4 w F52 – Pan-STARRS 2, Haleakala MPS 940231
2018 11 10.49288 03 05 22.888 +10 02 09.43 20.3 w F52 – Pan-STARRS 2, Haleakala MPS 940231
2018 11 10.50454 03 05 22.206 +10 02 08.23 20.5 w F52 – Pan-STARRS 2, Haleakala MPS 940231
2018 11 10.50526 03 05 22.152 +10 02 08.12 20.3 w F52 – Pan-STARRS 2, Haleakala MPS 940231
2018 11 10.51750 03 05 21.437 +10 02 06.95 20.3 w F52 – Pan-STARRS 2, Haleakala MPS 940231
2018 11 11.29631 03 04 37.18 +10 00 46.5 20.8 G G96 – Mt. Lemmon Survey MPS 951893
2018 11 11.29962 03 04 36.99 +10 00 46.2 20.8 G G96 – Mt. Lemmon Survey MPS 951893
2018 11 11.30292 03 04 36.80 +10 00 45.7 20.5 G G96 – Mt. Lemmon Survey MPS 951893
